Time,TemperatureF,DewpointF,PressureIn,WindDirection,WindDirectionDegrees,WindSpeedMPH,WindSpeedGustMPH,Humidity,HourlyPrecipIn,Conditions,Clouds,dailyrainin,SoftwareType,DateUTC
2013-03-26 00:00:00,49.1,26.4,29.85,NNW,337,4.0,4.0,41,0.00,,BKN130,0.00,VWS V14.01,2013-03-26 07:00:00,
2013-03-26 00:05:00,48.9,26.3,29.85,NW,320,3.1,3.1,41,0.00,,BKN130,0.00,VWS V14.01,2013-03-26 07:05:00,
2013-03-26 00:10:00,48.9,26.9,29.85,NW,307,0.0,0.0,42,0.00,,BKN130,0.00,VWS V14.01,2013-03-26 07:10:00,
2013-03-26 00:15:00,48.7,26.7,29.85,NNW,327,0.0,0.0,42,0.00,,BKN130,0.00,VWS V14.01,2013-03-26 07:15:00,
2013-03-26 00:20:00,48.7,26.7,29.85,NW,311,0.0,0.0,42,0.00,,BKN130,0.00,VWS V14.01,2013-03-26 07:20:00,
2013-03-26 00:25:00,48.7,26.7,29.85,NW,307,0.0,0.0,42,0.00,,BKN130,0.00,VWS V14.01,2013-03-26 07:25:00,
2013-03-26 00:30:00,48.7,26.7,29.85,North,5,2.7,2.7,42,0.00,,BKN130,0.00,VWS V14.01,2013-03-26 07:30:00,
2013-03-26 00:35:00,48.7,27.3,29.85,NW,304,0.0,0.0,43,0.00,,BKN130,0.00,VWS V14.01,2013-03-26 07:35:00,
2013-03-26 00:40:00,48.7,27.3,29.85,NW,310,0.0,0.0,43,0.00,,BKN130,0.00,VWS V14.01,2013-03-26 07:40:00,
2013-03-26 00:45:00,48.7,27.3,29.85,NE,53,2.7,2.7,43,0.00,,BKN130,0.00,VWS V14.01,2013-03-26 07:45:00,
2013-03-26 00:50:00,48.7,27.3,29.85,SW,236,2.7,2.7,43,0.00,,BKN130,0.00,VWS V14.01,2013-03-26 07:50:00,
2013-03-26 00:55:00,48.7,27.3,29.85,NW,312,0.0,0.0,43,0.00,,BKN130,0.00,VWS V14.01,2013-03-26 07:55:00,
2013-03-26 01:00:00,48.9,27.4,29.85,WNW,300,2.7,2.7,43,0.00,,BKN120,0.00,VWS V14.01,2013-03-26 08:00:00,
2013-03-26 01:05:00,48.9,27.4,29.85,NNW,329,0.0,4.7,43,0.00,,BKN120,0.00,VWS V14.01,2013-03-26 08:05:00,
2013-03-26 01:10:00,48.9,27.4,29.85,WNW,299,0.0,0.0,43,0.00,,BKN120,0.00,VWS V14.01,2013-03-26 08:10:00,
2013-03-26 01:15:00,48.7,26.7,29.85,NW,316,0.0,0.0,42,0.00,,BKN120,0.00,VWS V14.01,2013-03-26 08:15:00,
2013-03-26 01:20:00,48.7,26.7,29.85,NW,317,0.0,0.0,42,0.00,,BKN120,0.00,VWS V14.01,2013-03-26 08:20:00,
2013-03-26 01:25:00,48.7,26.7,29.85,NW,307,0.0,0.0,42,0.00,,BKN120,0.00,VWS V14.01,2013-03-26 08:25:00,
2013-03-26 01:30:00,48.6,26.5,29.85,NNW,348,0.0,0.0,42,0.00,,BKN120,0.00,VWS V14.01,2013-03-26 08:30:00,
2013-03-26 01:35:00,48.7,26.7,29.85,WNW,301,0.0,0.0,42,0.00,,BKN120,0.00,VWS V14.01,2013-03-26 08:35:00,
2013-03-26 01:40:00,48.7,26.7,29.85,NW,310,0.0,0.0,42,0.00,,BKN120,0.00,VWS V14.01,2013-03-26 08:40:00,
2013-03-26 01:45:00,48.9,26.9,29.83,WNW,300,0.0,0.0,42,0.00,,BKN120,0.00,VWS V14.01,2013-03-26 08:45:00,
2013-03-26 01:50:00,48.9,26.9,29.83,WNW,283,3.6,3.6,42,0.00,,BKN120,0.00,VWS V14.01,2013-03-26 08:50:00,
2013-03-26 01:55:00,49.1,27.0,29.83,WNW,300,0.0,0.0,42,0.00,,BKN120,0.00,VWS V14.01,2013-03-26 08:55:00,
2013-03-26 02:00:00,49.1,27.0,29.85,WNW,291,0.0,0.0,42,0.00,,BKN110,0.00,VWS V14.01,2013-03-26 09:00:00,
2013-03-26 02:05:00,49.1,26.4,29.85,WNW,302,0.0,0.0,41,0.00,,BKN110,0.00,VWS V14.01,2013-03-26 09:05:00,
2013-03-26 02:10:00,49.1,26.4,29.85,NW,305,0.0,0.0,41,0.00,,BKN110,0.00,VWS V14.01,2013-03-26 09:10:00,
2013-03-26 02:15:00,49.1,26.4,29.85,NW,305,0.0,0.0,41,0.00,,BKN110,0.00,VWS V14.01,2013-03-26 09:15:00,
2013-03-26 02:20:00,49.1,26.4,29.85,NW,304,0.0,0.0,41,0.00,,BKN110,0.00,VWS V14.01,2013-03-26 09:20:00,
2013-03-26 02:25:00,49.1,26.4,29.85,NW,304,0.0,0.0,41,0.00,,BKN110,0.00,VWS V14.01,2013-03-26 09:25:00,
2013-03-26 02:30:00,49.1,26.4,29.83,NW,305,0.0,0.0,41,0.00,,BKN110,0.00,VWS V14.01,2013-03-26 09:30:00,
2013-03-26 02:35:00,49.1,26.4,29.83,NW,304,0.0,0.0,41,0.00,,BKN110,0.00,VWS V14.01,2013-03-26 09:35:00,
2013-03-26 02:40:00,49.1,26.4,29.83,NW,305,0.0,0.0,41,0.00,,BKN110,0.00,VWS V14.01,2013-03-26 09:40:00,
2013-03-26 02:45:00,49.3,26.6,29.83,NW,304,0.0,0.0,41,0.00,,BKN110,0.00,VWS V14.01,2013-03-26 09:45:00,
2013-03-26 02:50:00,49.3,26.6,29.83,NW,305,0.0,0.0,41,0.00,,BKN110,0.00,VWS V14.01,2013-03-26 09:50:00,
2013-03-26 02:55:00,49.3,26.6,29.83,NW,304,0.0,0.0,41,0.00,,BKN110,0.00,VWS V14.01,2013-03-26 09:55:00,
2013-03-26 03:00:00,49.3,26.6,29.83,NW,304,0.0,0.0,41,0.00,,-RA,0.00,VWS V14.01,2013-03-26 10:00:00,
2013-03-26 03:05:00,49.3,26.0,29.83,NW,304,0.0,0.0,40,0.00,,-RA,0.00,VWS V14.01,2013-03-26 10:05:00,
2013-03-26 03:10:00,49.3,26.0,29.83,NW,305,0.0,0.0,40,0.00,,-RA,0.00,VWS V14.01,2013-03-26 10:10:00,
2013-03-26 03:15:00,49.3,26.0,29.83,NNW,340,0.0,0.0,40,0.00,,-RA,0.00,VWS V14.01,2013-03-26 10:15:00,
2013-03-26 03:20:00,49.1,25.8,29.83,WNW,301,0.0,0.0,40,0.00,,-RA,0.00,VWS V14.01,2013-03-26 10:20:00,
2013-03-26 03:25:00,49.1,25.8,29.83,WNW,303,0.0,0.0,40,0.00,,-RA,0.00,VWS V14.01,2013-03-26 10:25:00,
2013-03-26 03:30:00,49.1,25.8,29.83,WNW,302,0.0,0.0,40,0.00,,-RA,0.00,VWS V14.01,2013-03-26 10:30:00,
2013-03-26 03:35:00,49.1,25.8,29.83,WNW,302,0.0,0.0,40,0.00,,-RA,0.00,VWS V14.01,2013-03-26 10:35:00,
2013-03-26 03:40:00,48.9,25.7,29.83,WNW,302,0.0,0.0,40,0.00,,-RA,0.00,VWS V14.01,2013-03-26 10:40:00,
2013-03-26 03:45:00,48.9,25.7,29.83,WNW,302,0.0,0.0,40,0.00,,-RA,0.00,VWS V14.01,2013-03-26 10:45:00,
2013-03-26 03:50:00,48.9,25.7,29.83,WNW,302,0.0,0.0,40,0.00,,-RA,0.00,VWS V14.01,2013-03-26 10:50:00,
2013-03-26 03:55:00,48.9,25.7,29.83,WNW,302,0.0,0.0,40,0.00,,-RA,0.00,VWS V14.01,2013-03-26 10:55:00,
2013-03-26 04:00:00,48.9,25.7,29.83,WNW,302,0.0,0.0,40,0.00,,-RA,0.00,VWS V14.01,2013-03-26 11:00:00,
2013-03-26 04:05:00,48.7,25.5,29.83,WNW,302,0.0,0.0,40,0.00,,OVC090,0.00,VWS V14.01,2013-03-26 11:05:00,
2013-03-26 04:10:00,48.7,25.5,29.83,WNW,301,0.0,0.0,40,0.00,,OVC090,0.00,VWS V14.01,2013-03-26 11:10:00,
2013-03-26 04:15:00,48.7,25.5,29.83,WNW,302,0.0,0.0,40,0.00,,OVC090,0.00,VWS V14.01,2013-03-26 11:15:00,
2013-03-26 04:20:00,48.7,25.5,29.83,WNW,302,0.0,0.0,40,0.00,,OVC090,0.00,VWS V14.01,2013-03-26 11:20:00,
2013-03-26 04:25:00,48.9,25.7,29.83,WNW,302,0.0,0.0,40,0.00,,OVC090,0.00,VWS V14.01,2013-03-26 11:25:00,
2013-03-26 04:30:00,48.9,26.3,29.83,WNW,302,0.0,0.0,41,0.00,,OVC090,0.00,VWS V14.01,2013-03-26 11:30:00,
2013-03-26 04:35:00,48.9,26.3,29.83,WNW,302,0.0,0.0,41,0.00,,OVC090,0.00,VWS V14.01,2013-03-26 11:35:00,
2013-03-26 04:40:00,48.9,26.3,29.83,WNW,302,0.0,0.0,41,0.00,,OVC090,0.00,VWS V14.01,2013-03-26 11:40:00,
2013-03-26 04:45:00,48.9,26.3,29.83,WNW,302,0.0,0.0,41,0.00,,OVC090,0.00,VWS V14.01,2013-03-26 11:45:00,
2013-03-26 04:50:00,48.7,26.1,29.83,WNW,302,0.0,0.0,41,0.00,,OVC090,0.00,VWS V14.01,2013-03-26 11:50:00,
2013-03-26 04:55:00,48.7,26.1,29.83,NNW,328,0.0,0.0,41,0.00,,OVC090,0.00,VWS V14.01,2013-03-26 11:55:00,
2013-03-26 05:00:00,48.7,26.1,29.83,NW,326,0.0,0.0,41,0.00,,OVC090,0.00,VWS V14.01,2013-03-26 12:00:00,
2013-03-26 05:05:00,48.7,26.1,29.83,NW,307,2.7,2.7,41,0.00,,OVC090,0.00,VWS V14.01,2013-03-26 12:05:00,
2013-03-26 05:10:00,48.7,26.1,29.83,NW,312,0.0,0.0,41,0.00,,OVC090,0.00,VWS V14.01,2013-03-26 12:10:00,
2013-03-26 05:15:00,48.7,26.1,29.83,NW,307,0.0,0.0,41,0.00,,OVC090,0.00,VWS V14.01,2013-03-26 12:15:00,
2013-03-26 05:20:00,48.6,26.0,29.83,NW,304,0.0,0.0,41,0.00,,OVC090,0.00,VWS V14.01,2013-03-26 12:20:00,
2013-03-26 05:25:00,48.4,25.8,29.83,NW,306,0.0,0.0,41,0.00,,OVC090,0.00,VWS V14.01,2013-03-26 12:25:00,
2013-03-26 05:30:00,48.2,25.6,29.83,NW,306,0.0,0.0,41,0.00,,OVC090,0.00,VWS V14.01,2013-03-26 12:30:00,
2013-03-26 05:35:00,48.2,25.6,29.83,NW,306,0.0,0.0,41,0.00,,OVC090,0.00,VWS V14.01,2013-03-26 12:35:00,
2013-03-26 05:40:00,48.0,25.5,29.83,NW,317,0.0,0.0,41,0.00,,OVC090,0.00,VWS V14.01,2013-03-26 12:40:00,
2013-03-26 05:45:00,48.0,25.5,29.83,WNW,301,0.0,0.0,41,0.00,,OVC090,0.00,VWS V14.01,2013-03-26 12:45:00,
2013-03-26 05:50:00,47.8,25.3,29.83,NW,310,0.0,0.0,41,0.00,,OVC090,0.00,VWS V14.01,2013-03-26 12:50:00,
2013-03-26 05:55:00,47.8,25.3,29.83,NW,311,0.0,0.0,41,0.00,,OVC090,0.00,VWS V14.01,2013-03-26 12:55:00,
2013-03-26 06:00:00,47.8,25.3,29.83,NW,305,0.0,0.0,41,0.00,,OVC090,0.00,VWS V14.01,2013-03-26 13:00:00,
2013-03-26 06:05:00,47.7,25.7,29.83,NW,306,0.0,0.0,42,0.00,,BKN085,0.00,VWS V14.01,2013-03-26 13:05:00,
2013-03-26 06:10:00,47.5,25.5,29.83,NW,307,0.0,0.0,42,0.00,,BKN085,0.00,VWS V14.01,2013-03-26 13:10:00,
2013-03-26 06:15:00,47.5,25.5,29.83,NW,308,0.0,0.0,42,0.00,,BKN085,0.00,VWS V14.01,2013-03-26 13:15:00,
2013-03-26 06:20:00,47.5,25.5,29.83,NW,308,0.0,0.0,42,0.00,,BKN085,0.00,VWS V14.01,2013-03-26 13:20:00,
2013-03-26 06:25:00,47.5,25.5,29.83,NW,308,0.0,0.0,42,0.00,,BKN085,0.00,VWS V14.01,2013-03-26 13:25:00,
2013-03-26 06:30:00,47.5,25.5,29.83,NW,308,0.0,0.0,42,0.00,,BKN085,0.00,VWS V14.01,2013-03-26 13:30:00,
2013-03-26 06:35:00,47.5,25.5,29.83,NW,307,0.0,0.0,42,0.00,,BKN085,0.00,VWS V14.01,2013-03-26 13:35:00,
2013-03-26 06:40:00,47.5,25.5,29.83,NW,308,0.0,0.0,42,0.00,,BKN085,0.00,VWS V14.01,2013-03-26 13:40:00,
2013-03-26 06:45:00,47.3,25.4,29.83,NW,308,0.0,0.0,42,0.00,,BKN085,0.00,VWS V14.01,2013-03-26 13:45:00,
2013-03-26 06:50:00,47.3,25.4,29.83,NW,308,0.0,0.0,42,0.00,,BKN085,0.00,VWS V14.01,2013-03-26 13:50:00,
2013-03-26 06:55:00,47.1,25.2,29.83,NW,308,0.0,0.0,42,0.00,,BKN085,0.00,VWS V14.01,2013-03-26 13:55:00,
2013-03-26 07:00:00,46.8,25.5,29.83,NW,307,0.0,0.0,43,0.00,,BKN085,0.00,VWS V14.01,2013-03-26 14:00:00,
2013-03-26 07:05:00,46.8,25.5,29.83,NW,308,0.0,0.0,43,0.00,,BKN090,0.00,VWS V14.01,2013-03-26 14:05:00,
2013-03-26 07:10:00,46.6,25.3,29.83,NW,308,0.0,0.0,43,0.00,,BKN090,0.00,VWS V14.01,2013-03-26 14:10:00,
2013-03-26 07:15:00,46.6,25.3,29.83,NW,308,0.0,0.0,43,0.00,,BKN090,0.00,VWS V14.01,2013-03-26 14:15:00,
2013-03-26 07:20:00,46.6,25.3,29.83,NW,308,0.0,0.0,43,0.00,,BKN090,0.00,VWS V14.01,2013-03-26 14:20:00,
2013-03-26 07:25:00,46.6,25.3,29.83,NW,308,0.0,0.0,43,0.00,,BKN090,0.00,VWS V14.01,2013-03-26 14:25:00,
2013-03-26 07:30:00,46.6,25.9,29.83,NW,308,0.0,0.0,44,0.00,,BKN090,0.00,VWS V14.01,2013-03-26 14:30:00,
2013-03-26 07:35:00,46.8,26.0,29.83,NW,308,0.0,0.0,44,0.00,,BKN090,0.00,VWS V14.01,2013-03-26 14:35:00,
2013-03-26 07:40:00,46.8,26.0,29.83,NW,307,0.0,0.0,44,0.00,,BKN090,0.00,VWS V14.01,2013-03-26 14:40:00,
2013-03-26 07:45:00,46.8,26.0,29.83,NW,308,0.0,0.0,44,0.00,,BKN090,0.00,VWS V14.01,2013-03-26 14:45:00,
2013-03-26 07:50:00,46.8,26.6,29.83,NW,308,0.0,0.0,45,0.00,,BKN090,0.00,VWS V14.01,2013-03-26 14:50:00,
2013-03-26 07:55:00,46.9,26.7,29.83,NW,308,0.0,0.0,45,0.00,,BKN090,0.00,VWS V14.01,2013-03-26 14:55:00,
2013-03-26 08:00:00,46.9,26.7,29.83,NW,308,0.0,0.0,45,0.00,,BKN090,0.00,VWS V14.01,2013-03-26 15:00:00,
2013-03-26 08:05:00,46.9,26.7,29.83,NW,308,0.0,0.0,45,0.00,,BKN070,0.00,VWS V14.01,2013-03-26 15:05:00,
2013-03-26 08:10:00,46.9,26.7,29.83,NW,308,0.0,0.0,45,0.00,,BKN070,0.00,VWS V14.01,2013-03-26 15:10:00,
2013-03-26 08:15:00,46.9,26.7,29.83,NW,307,0.0,0.0,45,0.00,,BKN070,0.00,VWS V14.01,2013-03-26 15:15:00,
2013-03-26 08:20:00,46.9,27.3,29.85,NW,308,0.0,0.0,46,0.00,,BKN070,0.00,VWS V14.01,2013-03-26 15:20:00,
2013-03-26 08:25:00,47.3,27.6,29.85,NW,307,0.0,0.0,46,0.00,,BKN070,0.00,VWS V14.01,2013-03-26 15:25:00,
2013-03-26 08:30:00,47.3,27.6,29.85,NW,309,0.0,0.0,46,0.00,,BKN070,0.00,VWS V14.01,2013-03-26 15:30:00,
2013-03-26 08:35:00,47.5,27.8,29.85,NW,308,0.0,0.0,46,0.00,,BKN070,0.00,VWS V14.01,2013-03-26 15:35:00,
2013-03-26 08:40:00,47.7,27.9,29.85,NW,308,0.0,0.0,46,0.00,,BKN070,0.00,VWS V14.01,2013-03-26 15:40:00,
2013-03-26 08:45:00,48.0,28.8,29.85,NW,308,0.0,0.0,47,0.00,,BKN070,0.00,VWS V14.01,2013-03-26 15:45:00,
2013-03-26 08:50:00,48.4,29.1,29.85,NNE,13,0.0,0.0,47,0.00,,BKN070,0.00,VWS V14.01,2013-03-26 15:50:00,
2013-03-26 08:55:00,48.7,29.4,29.85,NNE,16,0.0,0.0,47,0.00,,BKN070,0.00,VWS V14.01,2013-03-26 15:55:00,
2013-03-26 09:00:00,49.3,29.9,29.85,NNW,340,0.0,0.0,47,0.00,,BKN070,0.00,VWS V14.01,2013-03-26 16:00:00,
2013-03-26 09:05:00,49.5,30.1,29.85,SW,221,0.0,0.0,47,0.00,,BKN160,0.00,VWS V14.01,2013-03-26 16:05:00,
2013-03-26 09:10:00,50.2,30.2,29.85,SW,221,0.0,0.0,46,0.00,,BKN160,0.00,VWS V14.01,2013-03-26 16:10:00,
2013-03-26 09:15:00,50.7,30.7,29.85,SSW,198,0.0,0.0,46,0.00,,BKN160,0.00,VWS V14.01,2013-03-26 16:15:00,
2013-03-26 09:20:00,51.1,30.5,29.85,South,170,0.0,0.0,45,0.00,,BKN160,0.00,VWS V14.01,2013-03-26 16:20:00,
2013-03-26 09:25:00,51.1,29.4,29.85,SSW,200,3.1,3.1,43,0.00,,BKN160,0.00,VWS V14.01,2013-03-26 16:25:00,
2013-03-26 09:30:00,51.3,29.0,29.85,South,182,0.0,0.0,42,0.00,,BKN160,0.00,VWS V14.01,2013-03-26 16:30:00,
2013-03-26 09:35:00,51.3,27.8,29.85,SW,223,0.0,0.0,40,0.00,,BKN160,0.00,VWS V14.01,2013-03-26 16:35:00,
2013-03-26 09:40:00,51.4,27.9,29.85,WSW,252,0.0,0.0,40,0.00,,BKN160,0.00,VWS V14.01,2013-03-26 16:40:00,
2013-03-26 09:45:00,51.6,27.5,29.85,SW,222,0.0,0.0,39,0.00,,BKN160,0.00,VWS V14.01,2013-03-26 16:45:00,
2013-03-26 09:50:00,51.6,27.5,29.85,SW,217,0.0,2.7,39,0.00,,BKN160,0.00,VWS V14.01,2013-03-26 16:50:00,
2013-03-26 09:55:00,51.8,27.0,29.85,SSW,206,0.0,0.0,38,0.00,,BKN160,0.00,VWS V14.01,2013-03-26 16:55:00,
2013-03-26 10:00:00,52.0,27.2,29.85,South,180,0.0,0.0,38,0.00,,BKN160,0.00,VWS V14.01,2013-03-26 17:00:00,
2013-03-26 10:05:00,52.2,27.3,29.85,SSE,163,0.0,0.0,38,0.00,,BKN160,0.00,VWS V14.01,2013-03-26 17:05:00,
2013-03-26 10:10:00,52.3,27.5,29.85,South,189,0.0,0.0,38,0.00,,BKN160,0.00,VWS V14.01,2013-03-26 17:10:00,
2013-03-26 10:15:00,52.7,27.2,29.85,SSW,211,0.0,4.7,37,0.00,,BKN160,0.00,VWS V14.01,2013-03-26 17:15:00,
2013-03-26 10:20:00,52.7,27.2,29.85,SSW,195,0.0,0.0,37,0.00,,BKN160,0.00,VWS V14.01,2013-03-26 17:20:00,
2013-03-26 10:25:00,52.9,27.3,29.85,SSE,160,0.0,0.0,37,0.00,,BKN160,0.00,VWS V14.01,2013-03-26 17:25:00,
2013-03-26 10:30:00,53.6,28.0,29.85,SSW,208,0.0,0.0,37,0.00,,BKN160,0.00,VWS V14.01,2013-03-26 17:30:00,
2013-03-26 10:35:00,54.1,27.8,29.85,South,190,0.0,0.0,36,0.00,,BKN160,0.00,VWS V14.01,2013-03-26 17:35:00,
2013-03-26 10:40:00,54.1,27.1,29.85,South,178,0.0,2.7,35,0.00,,BKN160,0.00,VWS V14.01,2013-03-26 17:40:00,
2013-03-26 10:45:00,54.1,27.1,29.85,SW,216,0.0,0.0,35,0.00,,BKN160,0.00,VWS V14.01,2013-03-26 17:45:00,
2013-03-26 10:50:00,54.0,24.8,29.85,SSW,212,0.0,0.0,32,0.00,,BKN160,0.00,VWS V14.01,2013-03-26 17:50:00,
2013-03-26 10:55:00,54.5,26.7,29.85,South,175,0.0,0.0,34,0.00,,BKN160,0.00,VWS V14.01,2013-03-26 17:55:00,
2013-03-26 11:00:00,55.2,26.6,29.85,SSW,194,0.0,0.0,33,0.00,,BKN160,0.00,VWS V14.01,2013-03-26 18:00:00,
2013-03-26 11:05:00,55.4,26.8,29.85,SSW,211,0.0,0.0,33,0.00,,BKN160,0.00,VWS V14.01,2013-03-26 18:05:00,
2013-03-26 11:10:00,55.0,25.7,29.85,SSW,194,0.0,0.0,32,0.00,,BKN160,0.00,VWS V14.01,2013-03-26 18:10:00,
2013-03-26 11:15:00,54.9,25.6,29.85,West,264,0.0,0.0,32,0.00,,BKN160,0.00,VWS V14.01,2013-03-26 18:15:00,
2013-03-26 11:19:00,54.5,27.4,29.85,SSW,197,0.0,0.0,35,0.00,,BKN160,0.00,VWS V14.01,2013-03-26 18:19:00,
2013-03-26 11:24:00,54.7,28.3,29.85,SW,216,0.0,2.7,36,0.00,,BKN160,0.00,VWS V14.01,2013-03-26 18:24:00,
2013-03-26 11:29:00,55.2,28.8,29.85,SSW,202,0.0,3.6,36,0.00,,BKN160,0.00,VWS V14.01,2013-03-26 18:29:00,
2013-03-26 11:34:00,55.6,28.4,29.85,South,181,0.0,0.0,35,0.00,,BKN160,0.00,VWS V14.01,2013-03-26 18:34:00,
2013-03-26 11:39:00,55.4,28.2,29.85,SSW,194,0.0,0.0,35,0.00,,BKN160,0.00,VWS V14.01,2013-03-26 18:39:00,
2013-03-26 11:44:00,55.2,28.8,29.85,SW,215,3.6,3.6,36,0.00,,BKN160,0.00,VWS V14.01,2013-03-26 18:44:00,
2013-03-26 11:49:00,55.2,28.8,29.85,SSW,193,0.0,0.0,36,0.00,,BKN160,0.00,VWS V14.01,2013-03-26 18:49:00,
2013-03-26 11:54:00,55.6,29.1,29.85,SSE,165,0.0,3.1,36,0.00,,BKN160,0.00,VWS V14.01,2013-03-26 18:54:00,
2013-03-26 11:59:00,56.3,29.0,29.85,SSE,157,0.0,0.0,35,0.00,,BKN160,0.00,VWS V14.01,2013-03-26 18:59:00,
2013-03-26 12:04:00,57.0,27.5,29.85,SE,134,0.0,0.0,32,0.00,,BKN090,0.00,VWS V14.01,2013-03-26 19:04:00,
2013-03-26 12:09:00,57.6,28.7,29.85,SSE,162,2.7,2.7,33,0.00,,BKN090,0.00,VWS V14.01,2013-03-26 19:09:00,
2013-03-26 12:14:00,57.9,26.7,29.85,SSE,168,0.0,0.0,30,0.00,,BKN090,0.00,VWS V14.01,2013-03-26 19:14:00,
2013-03-26 12:19:00,57.7,25.7,29.85,SE,144,5.1,5.1,29,0.00,,BKN090,0.00,VWS V14.01,2013-03-26 19:19:00,
2013-03-26 12:24:00,57.6,25.6,29.85,SSE,160,0.0,0.0,29,0.00,,BKN090,0.00,VWS V14.01,2013-03-26 19:24:00,
2013-03-26 12:29:00,57.4,25.4,29.85,SE,139,0.0,0.0,29,0.00,,BKN090,0.00,VWS V14.01,2013-03-26 19:29:00,
2013-03-26 12:34:00,57.2,25.2,29.85,SSW,204,0.0,2.7,29,0.00,,BKN090,0.00,VWS V14.01,2013-03-26 19:34:00,
2013-03-26 12:39:00,57.4,26.2,29.85,SSW,207,3.1,3.1,30,0.00,,BKN090,0.00,VWS V14.01,2013-03-26 19:39:00,
2013-03-26 12:44:00,57.9,25.9,29.85,West,265,0.0,0.0,29,0.00,,BKN090,0.00,VWS V14.01,2013-03-26 19:44:00,
2013-03-26 12:49:00,58.8,26.6,29.85,SW,227,0.0,0.0,29,0.00,,BKN090,0.00,VWS V14.01,2013-03-26 19:49:00,
2013-03-26 12:54:00,59.2,25.2,29.85,South,174,0.0,0.0,27,0.00,,BKN090,0.00,VWS V14.01,2013-03-26 19:54:00,
2013-03-26 12:59:00,58.6,24.8,29.85,SSE,155,0.0,4.0,27,0.00,,BKN090,0.00,VWS V14.01,2013-03-26 19:59:00,
2013-03-26 13:04:00,58.1,25.2,29.85,ESE,122,0.0,0.0,28,0.00,,BKN180,0.00,VWS V14.01,2013-03-26 20:04:00,
2013-03-26 13:09:00,58.3,26.2,29.85,South,178,0.0,0.0,29,0.00,,BKN180,0.00,VWS V14.01,2013-03-26 20:09:00,
2013-03-26 13:14:00,58.8,25.8,29.85,South,188,0.0,0.0,28,0.00,,BKN180,0.00,VWS V14.01,2013-03-26 20:14:00,
2013-03-26 13:19:00,58.8,25.8,29.83,SE,135,0.0,0.0,28,0.00,,BKN180,0.00,VWS V14.01,2013-03-26 20:19:00,
2013-03-26 13:24:00,59.7,25.7,29.83,SW,222,2.7,2.7,27,0.00,,BKN180,0.00,VWS V14.01,2013-03-26 20:24:00,
2013-03-26 13:29:00,60.1,25.1,29.83,SSE,162,0.0,0.0,26,0.00,,BKN180,0.00,VWS V14.01,2013-03-26 20:29:00,
2013-03-26 13:34:00,60.1,25.1,29.83,SSE,166,0.0,0.0,26,0.00,,BKN180,0.00,VWS V14.01,2013-03-26 20:34:00,
2013-03-26 13:39:00,60.4,26.3,29.83,SSW,199,0.0,0.0,27,0.00,,BKN180,0.00,VWS V14.01,2013-03-26 20:39:00,
2013-03-26 13:44:00,61.2,26.9,29.83,SSE,163,0.0,0.0,27,0.00,,BKN180,0.00,VWS V14.01,2013-03-26 20:44:00,
2013-03-26 13:49:00,61.3,26.2,29.83,SSW,211,0.0,0.0,26,0.00,,BKN180,0.00,VWS V14.01,2013-03-26 20:49:00,
2013-03-26 13:54:00,61.3,26.2,29.83,South,190,2.7,2.7,26,0.00,,BKN180,0.00,VWS V14.01,2013-03-26 20:54:00,
2013-03-26 13:59:00,61.5,26.3,29.83,WNW,295,0.0,0.0,26,0.00,,BKN180,0.00,VWS V14.01,2013-03-26 20:59:00,
2013-03-26 14:04:00,61.7,26.5,29.83,NNW,330,0.0,0.0,26,0.00,,BKN180,0.00,VWS V14.01,2013-03-26 21:04:00,
2013-03-26 14:09:00,61.7,26.5,29.83,SW,219,0.0,0.0,26,0.00,,BKN180,0.00,VWS V14.01,2013-03-26 21:09:00,
2013-03-26 14:14:00,62.1,26.8,29.83,NW,315,0.0,0.0,26,0.00,,BKN180,0.00,VWS V14.01,2013-03-26 21:14:00,
2013-03-26 14:19:00,63.5,27.1,29.83,West,280,0.0,0.0,25,0.00,,BKN180,0.00,VWS V14.01,2013-03-26 21:19:00,
2013-03-26 14:24:00,63.7,27.2,29.83,West,273,0.0,0.0,25,0.00,,BKN180,0.00,VWS V14.01,2013-03-26 21:24:00,
2013-03-26 14:29:00,63.7,27.2,29.83,NNW,327,0.0,4.0,25,0.00,,BKN180,0.00,VWS V14.01,2013-03-26 21:29:00,
2013-03-26 14:34:00,64.9,27.3,29.83,NW,309,3.1,3.1,24,0.00,,BKN180,0.00,VWS V14.01,2013-03-26 21:34:00,
2013-03-26 14:39:00,64.8,27.2,29.80,WNW,291,2.7,2.7,24,0.00,,BKN180,0.00,VWS V14.01,2013-03-26 21:39:00,
2013-03-26 14:44:00,64.8,27.2,29.80,WNW,290,0.0,0.0,24,0.00,,BKN180,0.00,VWS V14.01,2013-03-26 21:44:00,
2013-03-26 14:49:00,65.3,27.6,29.80,NW,304,0.0,0.0,24,0.00,,BKN180,0.00,VWS V14.01,2013-03-26 21:49:00,
2013-03-26 14:54:00,65.1,27.5,29.80,WNW,286,0.0,0.0,24,0.00,,BKN180,0.00,VWS V14.01,2013-03-26 21:54:00,
2013-03-26 14:59:00,65.1,27.5,29.80,NNW,345,0.0,0.0,24,0.00,,BKN180,0.00,VWS V14.01,2013-03-26 21:59:00,
2013-03-26 15:04:00,64.9,27.3,29.80,West,271,2.7,3.1,24,0.00,,BKN180,0.00,VWS V14.01,2013-03-26 22:04:00,
2013-03-26 15:09:00,65.1,27.5,29.80,WSW,240,0.0,0.0,24,0.00,,BKN180,0.00,VWS V14.01,2013-03-26 22:09:00,
2013-03-26 15:14:00,65.5,27.8,29.80,WNW,288,0.0,0.0,24,0.00,,BKN180,0.00,VWS V14.01,2013-03-26 22:14:00,
2013-03-26 15:19:00,65.7,27.9,29.80,WNW,302,0.0,3.6,24,0.00,,BKN180,0.00,VWS V14.01,2013-03-26 22:19:00,
2013-03-26 15:24:00,65.3,27.6,29.80,NW,308,0.0,0.0,24,0.00,,BKN180,0.00,VWS V14.01,2013-03-26 22:24:00,
2013-03-26 15:29:00,65.3,27.6,29.80,SSW,209,0.0,0.0,24,0.00,,BKN180,0.00,VWS V14.01,2013-03-26 22:29:00,
2013-03-26 15:34:00,65.3,27.6,29.80,WSW,252,0.0,4.5,24,0.00,,BKN180,0.00,VWS V14.01,2013-03-26 22:34:00,
2013-03-26 15:39:00,65.1,27.5,29.80,NW,312,0.0,0.0,24,0.00,,BKN180,0.00,VWS V14.01,2013-03-26 22:39:00,
2013-03-26 15:44:00,65.1,27.5,29.80,WSW,247,3.6,3.6,24,0.00,,BKN180,0.00,VWS V14.01,2013-03-26 22:44:00,
2013-03-26 15:49:00,65.1,27.5,29.80,NW,306,4.0,4.0,24,0.00,,BKN180,0.00,VWS V14.01,2013-03-26 22:49:00,
2013-03-26 15:54:00,64.9,27.3,29.80,North,349,0.0,5.6,24,0.00,,BKN180,0.00,VWS V14.01,2013-03-26 22:54:00,
2013-03-26 15:59:00,64.9,27.3,29.80,NW,325,4.5,4.5,24,0.00,,BKN180,0.00,VWS V14.01,2013-03-26 22:59:00,
2013-03-26 16:04:00,64.8,27.2,29.80,NNW,337,0.0,5.1,24,0.00,,SCT180,0.00,VWS V14.01,2013-03-26 23:04:00,
2013-03-26 16:09:00,64.0,26.5,29.80,NW,304,0.0,2.7,24,0.00,,SCT180,0.00,VWS V14.01,2013-03-26 23:09:00,
2013-03-26 16:14:00,63.5,26.1,29.80,NW,326,0.0,3.1,24,0.00,,SCT180,0.00,VWS V14.01,2013-03-26 23:14:00,
2013-03-26 16:19:00,63.1,25.8,29.80,WSW,249,2.7,2.7,24,0.00,,SCT180,0.00,VWS V14.01,2013-03-26 23:19:00,
2013-03-26 16:24:00,63.1,25.8,29.80,NW,315,4.0,4.5,24,0.00,,SCT180,0.00,VWS V14.01,2013-03-26 23:24:00,
2013-03-26 16:29:00,63.0,26.6,29.80,West,259,4.0,4.0,25,0.00,,SCT180,0.00,VWS V14.01,2013-03-26 23:29:00,
2013-03-26 16:34:00,62.8,25.5,29.80,NNW,339,4.0,5.6,24,0.00,,SCT180,0.00,VWS V14.01,2013-03-26 23:34:00,
2013-03-26 16:39:00,62.2,26.0,29.80,NNE,12,0.0,0.0,25,0.00,,SCT180,0.00,VWS V14.01,2013-03-26 23:39:00,
2013-03-26 16:44:00,62.2,26.0,29.80,NW,322,3.6,3.6,25,0.00,,SCT180,0.00,VWS V14.01,2013-03-26 23:44:00,
2013-03-26 16:49:00,62.6,26.3,29.80,WNW,303,0.0,0.0,25,0.00,,SCT180,0.00,VWS V14.01,2013-03-26 23:49:00,
2013-03-26 16:54:00,62.8,26.5,29.80,WSW,251,3.1,3.1,25,0.00,,SCT180,0.00,VWS V14.01,2013-03-26 23:54:00,
2013-03-26 16:59:00,62.8,26.5,29.80,WSW,254,0.0,5.1,25,0.00,,SCT180,0.00,VWS V14.01,2013-03-26 23:59:00,
2013-03-26 17:04:00,62.8,25.5,29.80,WNW,301,0.0,0.0,24,0.00,,SCT085,0.00,VWS V14.01,2013-03-27 00:04:00,
2013-03-26 17:09:00,62.8,25.5,29.77,WNW,299,0.0,0.0,24,0.00,,SCT085,0.00,VWS V14.01,2013-03-27 00:09:00,
2013-03-26 17:14:00,63.0,25.6,29.77,NW,321,3.6,3.6,24,0.00,,SCT085,0.00,VWS V14.01,2013-03-27 00:14:00,
2013-03-26 17:19:00,63.0,25.6,29.77,WNW,300,0.0,3.1,24,0.00,,SCT085,0.00,VWS V14.01,2013-03-27 00:19:00,
2013-03-26 17:24:00,62.2,26.0,29.77,NW,307,3.1,3.1,25,0.00,,SCT085,0.00,VWS V14.01,2013-03-27 00:24:00,
2013-03-26 17:29:00,62.1,25.9,29.77,NNW,327,0.0,0.0,25,0.00,,SCT085,0.00,VWS V14.01,2013-03-27 00:29:00,
2013-03-26 17:34:00,61.2,25.1,29.77,WNW,293,3.1,3.1,25,0.00,,SCT085,0.00,VWS V14.01,2013-03-27 00:34:00,
2013-03-26 17:39:00,60.4,24.5,29.77,West,279,0.0,0.0,25,0.00,,SCT085,0.00,VWS V14.01,2013-03-27 00:39:00,
2013-03-26 17:44:00,59.4,23.6,29.77,NW,306,0.0,0.0,25,0.00,,SCT085,0.00,VWS V14.01,2013-03-27 00:44:00,
2013-03-26 17:49:00,58.8,24.0,29.77,WNW,284,0.0,0.0,26,0.00,,SCT085,0.00,VWS V14.01,2013-03-27 00:49:00,
2013-03-26 17:54:00,58.5,23.7,29.77,NW,308,0.0,3.6,26,0.00,,SCT085,0.00,VWS V14.01,2013-03-27 00:54:00,
2013-03-26 17:59:00,58.3,24.5,29.77,NW,307,0.0,0.0,27,0.00,,SCT085,0.00,VWS V14.01,2013-03-27 00:59:00,
2013-03-26 18:04:00,58.5,24.6,29.77,West,266,2.7,2.7,27,0.00,,SCT070,0.00,VWS V14.01,2013-03-27 01:04:00,
2013-03-26 18:09:00,58.3,24.5,29.77,WNW,284,4.7,4.7,27,0.00,,SCT070,0.00,VWS V14.01,2013-03-27 01:09:00,
2013-03-26 18:14:00,58.3,25.3,29.77,NE,45,0.0,0.0,28,0.00,,SCT070,0.00,VWS V14.01,2013-03-27 01:14:00,
2013-03-26 18:19:00,58.3,25.3,29.77,West,268,5.1,5.1,28,0.00,,SCT070,0.00,VWS V14.01,2013-03-27 01:19:00,
2013-03-26 18:24:00,58.3,25.3,29.77,WNW,287,4.0,4.0,28,0.00,,SCT070,0.00,VWS V14.01,2013-03-27 01:24:00,
2013-03-26 18:29:00,57.6,24.7,29.77,WNW,299,0.0,0.0,28,0.00,,SCT070,0.00,VWS V14.01,2013-03-27 01:29:00,
2013-03-26 18:34:00,57.4,24.6,29.77,West,277,3.6,3.6,28,0.00,,SCT070,0.00,VWS V14.01,2013-03-27 01:34:00,
2013-03-26 18:39:00,56.8,24.9,29.77,NW,312,0.0,0.0,29,0.00,,SCT070,0.00,VWS V14.01,2013-03-27 01:39:00,
2013-03-26 18:44:00,56.5,24.6,29.80,WNW,301,0.0,0.0,29,0.00,,SCT070,0.00,VWS V14.01,2013-03-27 01:44:00,
2013-03-26 18:49:00,56.3,25.3,29.80,NW,316,0.0,0.0,30,0.00,,SCT070,0.00,VWS V14.01,2013-03-27 01:49:00,
2013-03-26 18:54:00,56.1,25.9,29.80,NW,325,0.0,2.7,31,0.00,,SCT070,0.00,VWS V14.01,2013-03-27 01:54:00,
2013-03-26 18:59:00,55.8,26.4,29.80,NW,322,0.0,0.0,32,0.00,,SCT070,0.00,VWS V14.01,2013-03-27 01:59:00,
2013-03-26 19:04:00,55.6,26.2,29.80,NW,313,0.0,3.1,32,0.00,,BKN075,0.00,VWS V14.01,2013-03-27 02:04:00,
2013-03-26 19:09:00,55.4,26.0,29.80,NW,307,0.0,0.0,32,0.00,,BKN075,0.00,VWS V14.01,2013-03-27 02:09:00,
2013-03-26 19:14:00,55.2,26.6,29.80,NW,304,0.0,0.0,33,0.00,,BKN075,0.00,VWS V14.01,2013-03-27 02:14:00,
2013-03-26 19:19:00,55.0,27.2,29.80,WNW,299,0.0,0.0,34,0.00,,BKN075,0.00,VWS V14.01,2013-03-27 02:19:00,
2013-03-26 19:24:00,54.9,27.8,29.80,NW,321,0.0,0.0,35,0.00,,BKN075,0.00,VWS V14.01,2013-03-27 02:24:00,
2013-03-26 19:29:00,54.5,27.4,29.80,NW,314,0.0,2.7,35,0.00,,BKN075,0.00,VWS V14.01,2013-03-27 02:29:00,
2013-03-26 19:34:00,54.5,27.4,29.80,WNW,284,0.0,0.0,35,0.00,,BKN075,0.00,VWS V14.01,2013-03-27 02:34:00,
2013-03-26 19:39:00,54.1,27.1,29.80,WNW,290,2.7,2.7,35,0.00,,BKN075,0.00,VWS V14.01,2013-03-27 02:39:00,
2013-03-26 19:44:00,54.0,27.0,29.80,NW,316,0.0,0.0,35,0.00,,BKN075,0.00,VWS V14.01,2013-03-27 02:44:00,
2013-03-26 19:49:00,53.8,26.8,29.80,NW,326,0.0,0.0,35,0.00,,BKN075,0.00,VWS V14.01,2013-03-27 02:49:00,
2013-03-26 19:54:00,53.6,27.3,29.80,NW,305,0.0,0.0,36,0.00,,BKN075,0.00,VWS V14.01,2013-03-27 02:54:00,
2013-03-26 19:59:00,53.6,27.3,29.80,NW,322,0.0,0.0,36,0.00,,BKN075,0.00,VWS V14.01,2013-03-27 02:59:00,
2013-03-26 20:04:00,53.2,27.0,29.80,NW,323,0.0,0.0,36,0.00,,BKN075,0.00,VWS V14.01,2013-03-27 03:04:00,
2013-03-26 20:09:00,53.2,27.7,29.80,North,350,0.0,0.0,37,0.00,,BKN075,0.00,VWS V14.01,2013-03-27 03:09:00,
2013-03-26 20:14:00,53.1,27.5,29.80,WNW,297,0.0,4.0,37,0.00,,BKN075,0.00,VWS V14.01,2013-03-27 03:14:00,
2013-03-26 20:19:00,52.9,28.0,29.80,WNW,300,0.0,0.0,38,0.00,,BKN075,0.00,VWS V14.01,2013-03-27 03:19:00,
2013-03-26 20:24:00,52.7,27.8,29.80,WNW,293,4.0,4.0,38,0.00,,BKN075,0.00,VWS V14.01,2013-03-27 03:24:00,
2013-03-26 20:29:00,52.7,28.5,29.80,NW,316,0.0,0.0,39,0.00,,BKN075,0.00,VWS V14.01,2013-03-27 03:29:00,
2013-03-26 20:34:00,52.7,28.5,29.80,NW,312,0.0,0.0,39,0.00,,BKN075,0.00,VWS V14.01,2013-03-27 03:34:00,
2013-03-26 20:39:00,52.7,28.5,29.80,NW,307,0.0,0.0,39,0.00,,BKN075,0.00,VWS V14.01,2013-03-27 03:39:00,
2013-03-26 20:44:00,52.7,28.5,29.80,NNW,327,0.0,0.0,39,0.00,,BKN075,0.00,VWS V14.01,2013-03-27 03:44:00,
2013-03-26 20:49:00,52.9,28.6,29.80,NW,317,0.0,0.0,39,0.00,,BKN075,0.00,VWS V14.01,2013-03-27 03:49:00,
2013-03-26 20:54:00,52.9,28.6,29.80,NW,304,0.0,0.0,39,0.00,,BKN075,0.00,VWS V14.01,2013-03-27 03:54:00,
2013-03-26 20:59:00,52.7,28.5,29.80,NW,324,0.0,0.0,39,0.00,,BKN075,0.00,VWS V14.01,2013-03-27 03:59:00,
2013-03-26 21:00:00,52.7,28.5,29.80,NW,324,0.0,0.0,39,0.00,,BKN075,0.00,VWS V14.01,2013-03-27 04:00:00,
2013-03-26 21:05:00,52.7,28.5,29.80,NW,325,0.0,0.0,39,0.00,,BKN080,0.00,VWS V14.01,2013-03-27 04:05:00,
2013-03-26 21:10:00,52.5,28.3,29.80,NNW,338,0.0,0.0,39,0.00,,BKN080,0.00,VWS V14.01,2013-03-27 04:10:00,
2013-03-26 21:15:00,52.3,28.1,29.80,NNW,329,0.0,0.0,39,0.00,,BKN080,0.00,VWS V14.01,2013-03-27 04:15:00,
2013-03-26 21:20:00,52.3,28.1,29.80,NNW,344,0.0,0.0,39,0.00,,BKN080,0.00,VWS V14.01,2013-03-27 04:20:00,
2013-03-26 21:25:00,52.0,28.4,29.80,NW,315,0.0,0.0,40,0.00,,BKN080,0.00,VWS V14.01,2013-03-27 04:25:00,
2013-03-26 21:30:00,52.0,28.4,29.83,NW,320,0.0,0.0,40,0.00,,BKN080,0.00,VWS V14.01,2013-03-27 04:30:00,
2013-03-26 21:35:00,52.0,28.4,29.83,NW,323,0.0,0.0,40,0.00,,BKN080,0.00,VWS V14.01,2013-03-27 04:35:00,
2013-03-26 21:40:00,52.0,28.4,29.83,NNW,339,0.0,0.0,40,0.00,,BKN080,0.00,VWS V14.01,2013-03-27 04:40:00,
2013-03-26 21:45:00,51.8,28.3,29.83,WNW,302,0.0,0.0,40,0.00,,BKN080,0.00,VWS V14.01,2013-03-27 04:45:00,
2013-03-26 21:50:00,51.8,28.3,29.83,NW,307,0.0,0.0,40,0.00,,BKN080,0.00,VWS V14.01,2013-03-27 04:50:00,
2013-03-26 21:55:00,51.8,28.3,29.83,NW,311,0.0,0.0,40,0.00,,BKN080,0.00,VWS V14.01,2013-03-27 04:55:00,
2013-03-26 22:00:00,51.8,28.3,29.83,NW,312,0.0,0.0,40,0.00,,BKN080,0.00,VWS V14.01,2013-03-27 05:00:00,
2013-03-26 22:05:00,51.8,28.3,29.83,NW,312,0.0,0.0,40,0.00,,BKN080,0.00,VWS V14.01,2013-03-27 05:05:00,
2013-03-26 22:10:00,51.6,28.1,29.83,NW,312,0.0,0.0,40,0.00,,BKN080,0.00,VWS V14.01,2013-03-27 05:10:00,
2013-03-26 22:15:00,51.6,28.1,29.83,NW,312,0.0,0.0,40,0.00,,BKN080,0.00,VWS V14.01,2013-03-27 05:15:00,
2013-03-26 22:20:00,51.6,28.1,29.83,NW,312,0.0,0.0,40,0.00,,BKN080,0.00,VWS V14.01,2013-03-27 05:20:00,
2013-03-26 22:25:00,51.6,28.1,29.83,NW,312,0.0,0.0,40,0.00,,BKN080,0.00,VWS V14.01,2013-03-27 05:25:00,
2013-03-26 22:30:00,51.6,28.1,29.83,NW,313,0.0,0.0,40,0.00,,BKN080,0.00,VWS V14.01,2013-03-27 05:30:00,
2013-03-26 22:35:00,51.6,28.1,29.83,NW,312,0.0,0.0,40,0.00,,BKN080,0.00,VWS V14.01,2013-03-27 05:35:00,
2013-03-26 22:40:00,51.6,28.1,29.83,NW,313,0.0,0.0,40,0.00,,BKN080,0.00,VWS V14.01,2013-03-27 05:40:00,
2013-03-26 22:45:00,51.6,27.5,29.83,NW,312,0.0,0.0,39,0.00,,BKN080,0.00,VWS V14.01,2013-03-27 05:45:00,
2013-03-26 22:50:00,51.6,27.5,29.83,NW,312,0.0,0.0,39,0.00,,BKN080,0.00,VWS V14.01,2013-03-27 05:50:00,
2013-03-26 22:55:00,51.6,27.5,29.83,NW,312,0.0,0.0,39,0.00,,BKN080,0.00,VWS V14.01,2013-03-27 05:55:00,
2013-03-26 23:00:00,51.6,27.5,29.83,NW,312,0.0,0.0,39,0.00,,BKN080,0.00,VWS V14.01,2013-03-27 06:00:00,
2013-03-26 23:05:00,51.6,27.5,29.83,NW,325,0.0,0.0,39,0.00,,BKN075,0.00,VWS V14.01,2013-03-27 06:05:00,
2013-03-26 23:10:00,51.6,26.9,29.83,NW,316,0.0,0.0,38,0.00,,BKN075,0.00,VWS V14.01,2013-03-27 06:10:00,
2013-03-26 23:15:00,51.4,26.7,29.83,NW,321,0.0,0.0,38,0.00,,BKN075,0.00,VWS V14.01,2013-03-27 06:15:00,
2013-03-26 23:20:00,51.4,26.7,29.83,NW,321,0.0,0.0,38,0.00,,BKN075,0.00,VWS V14.01,2013-03-27 06:20:00,
2013-03-26 23:25:00,51.3,25.9,29.83,NW,326,0.0,0.0,37,0.00,,BKN075,0.00,VWS V14.01,2013-03-27 06:25:00,
2013-03-26 23:30:00,51.3,25.9,29.83,NW,320,0.0,0.0,37,0.00,,BKN075,0.00,VWS V14.01,2013-03-27 06:30:00,
2013-03-26 23:35:00,51.3,25.9,29.83,NW,316,0.0,0.0,37,0.00,,BKN075,0.00,VWS V14.01,2013-03-27 06:35:00,
2013-03-26 23:40:00,51.3,25.9,29.83,NW,318,0.0,0.0,37,0.00,,BKN075,0.00,VWS V14.01,2013-03-27 06:40:00,
2013-03-26 23:45:00,51.3,25.9,29.83,NW,318,0.0,0.0,37,0.00,,BKN075,0.00,VWS V14.01,2013-03-27 06:45:00,
2013-03-26 23:50:00,51.1,25.7,29.83,NW,318,0.0,0.0,37,0.00,,BKN075,0.00,VWS V14.01,2013-03-27 06:50:00,
2013-03-26 23:55:00,51.1,25.7,29.83,NW,318,0.0,0.0,37,0.00,,BKN075,0.00,VWS V14.01,2013-03-27 06:55:00,